SCP
0 0 0 0 0 0 0 0 0 0 0 0 -0 -0 0 0 0 0 0 0 -0 -0 0 0 0 -0 -0 -0 -0 -0 -0 -0 -0 -0 -0 -0 -0 -0 -0 -0 -0 -0 -0 -0 -0 -0 -0 -0 -0
0 0 0 0 -0 -0 -0 -0 0 0 0 0 0 0 0 0 -0 0 0 0 -0 -0 -0 -0 -0 -0 -0 -0 -0 -0 -0 -0 -0 -0 -0 -0 -0 -0 -0 -0 -0 -0 -0 -0 -0 -0 -0 -0 -0
0 0 0 0 0 -0 -0 0 -0 0 0 0 0 0 -0 0 -0 0 0 -0 -0 -0 -0 0 -0 -0 -0 -0 -0 -0 -0 -0 -0 -0 -0 -0 -0 -0 -0 -0 -0 -0 -0 -0 -0 -0 -0 -0 -0
0 0 0 0 0 -0 -0 0 -0 0 0 -0 0 0 -0 0 0 0 -0 -0 -0 -0 0 -0 -0 -0 -0 -0 -0 -0 -0 -0 -0 -0 -0 -0 -0 -0 -0 -0 -0 -0 -0 -0 -0 -0 -0 -0 -0
0 0 0 0 0 -0 0 -0 -0 0 0 0 0 0 0 0 0 0 0 -0 -0 -0 -0 -0 -0 -0 -0 -0 -0 -0 -0 -0 -0 -0 -0 -0 -0 -0 -0 -0 -0 -0 -0 -0 -0 -0 -0 -0 -0
0 0 0 0 -0 0 -0 -0 -0 -0 -0 0 0 -0 0 0 -0 0 0 -0 -0 -0 -0 -0 -0 -0 -0 -0 -0 -0 -0 -0 -0 -0 -0 -0 -0 -0 -0 -0 -0 -0 -0 -0 -0 -0 -0 -0 -0
0 0 0 0 -0 -0 0 -0 -0 -0 -0 -0 -0 0 0 0 0 -0 -0 -0 -0 -0 -0 -0 -0 -0 -0 -0 -0 -0 -0 -0 -0 -0 -0 -0 -0 -0 -0 -0 -0 -0 -0 -0 -0 -0 -0 -0 -0
0 0 0 0 0 -0 0 0 0 -0 -0 0 -0 -0 -0 -0 -0 -0 0 -0 -0 -0 -0 -0 -0 0 0 -0 -0 -0 -0 -0 -0 -0 -0 -0 -0 -0 -0 -0 -0 -0 -0 -0 -0 -0 -0 -0 -0
0 0 0 0 0 0 -0 0 0 0 -0 0 0 -0 -0 -0 -0 -0 -0 0 -0 -0 -0 -0 -0 -0 0 0 0 -0 -0 -0 -0 -0 -0 -0 0 0 0 0 -0 -0 -0 -0 -0 -0 -0 -0 -0
0 0 0 0 0 0 0 0 0 0 0 0 0 -0 -0 -0 -0 -0 -0 -0 -0 -0 -0 -0 -0 -0 0 0 0 0 0 0 0 0 0 0 0 0 0 0 -0 -0 -0 -0 -0 -0 0 0 0
0 0 0 0 0 0 0 0 0 0 0 -0 -0 -0 -0 -0 -0 -0 -0 -0 -0 0 0 -0 -0 -0 0 0 0 0 0 0 0 0 0 0 0 0 0 0 0 0 0 0 0 0 0 0 0
0 0 0 0 0 0 0 0 0 0 0 0 0 -0 -0 -0 -0 -0 -0 -0 -0 -0 0 0 -0 0 0 0 0 0 0 0 0 0 0 0 0 0 0 0 0 0 0 0 0 0 0 0 0
0 0 0 0 0 0 0 0 0 0 0 0 0 -0 -0 -0 -0 -0 -0 -0 -0 -0 0 0 0 0 0 0 0 0 0 0 0 0 0 0 0 0 0 0 0 0 0 0 0 0 0 0 0
0 0 0 0 0 0 0 0 0 0 0 0 0 0 -0 -0 -0 0 -0 -0 -0 0 -0 0 0 0 0 0 0 0 0 0 0 0 0 0 0 0 0 0 0 0 0 0 0 0 0 0 0
0 0 0 0 0 0 0 0 0 0 0 0 0 0 0 -0 -0 -0 -0 -0 -0 0 0 0 0 0 0 0 0 0 0 0 0 0 0 0 0 0 0 0 0 0 0 0 0 0 0 0 0
0 0 0 0 0 0 0 0 0 0 0 0 0 0 0 0 0 -0 -0 -0 0 0 0 0 0 0 0 0 0 0 0 0 0 0 0 0 0 0 0 0 0 0 0 0 0 0 0 0 0
0 0 0 0 0 0 0 0 0 0 0 0 0 0 0 0 0 0 0 -0 0 0 0 0 0 0 0 0 0 0 0 0 0 0 0 0 0 0 0 0 0 0 0 0 0 0 0 0 0
0 0 0 0 0 0 0 0 0 0 0 0 0 0 0 0 0 0 0 0 0 0 0 0 0 0 0 0 0 0 0 0 0 0 0 0 0 0 0 0 0 0 0 0 0 0 0 0 0
0 0 0 0 0 0 0 0 0 0 0 0 0 0 0 0 0 0 0 0 0 0 0 0 0 0 0 0 0 0 0 0 0 0 0 0 0 0 0 0 0 0 0 0 0 0 0 0 0
0 0 0 0 0 0 0 -0 0 0 0 0 0 0 0 0 0 0 0 0 0 0 0 0 0 0 0 0 0 0 0 0 0 0 0 0 0 0 0 0 0 0 0 0 0 0 0 0 0
0 0 0 0 0 0 0 -0 -0 0 0 0 0 0 0 0 0 0 0 0 0 0 0 0 0 0 0 0 0 0 0 0 0 0 0 0 0 0 0 0 0 0 0 0 0 0 0 0 0
0 0 0 0 0 0 0 -0 -0 0 0 0 0 0 0 0 0 0 0 0 0 0 0 0 0 0 0 0 0 0 0 0 0 0 0 0 0 0 0 0 0 0 0 0 0 0 0 0 0
0 0 0 0 0 0 0 0 -0 -0 0 0 0 0 0 0 0 0 0 0 0 0 0 0 0 0 0 0 0 0 0 0 0 0 0 0 0 0 0 0 0 0 0 0 0 0 0 0 0
0 0 0 0 0 0 0 0 -0 -0 -0 -0 0 0 0 0 0 0 0 0 0 0 0 0 0 0 0 0 0 0 0 0 0 0 0 0 0 0 0 0 0 0 0 0 0 0 0 0 0
0 0 0 0 0 0 0 0 0 0 0 0 0 0 0 0 0 0 0 0 0 0 0 0 0 0 0 0 0 0 0 0 0 0 0 0 0 0 0 0 0 0 0 0 0 0 0 0 0
0 0 0 0 0 0 0 0 0 0 0 0 0 0 0 -0 0 0 0 0 0 0 0 0 0 0 0 0 0 0 0 0 0 0 0 0 0 0 0 0 0 0 0 0 0 0 0 0 0
0 0 0 0 0 0 0 0 0 0 0 0 0 0 0 0 0 -0 0 0 0 0 0 0 0 0 0 0 0 0 0 0 0 0 0 0 0 0 0 0 0 0 0 0 0 0 0 0 0
0 0 0 0 0 0 0 0 0 0 0 0 0 0 0 0 0 0 0 0 0 0 0 0 0 0 0 0 0 0 0 0 0 0 0 0 0 0 0 0 0 0 0 0 0 0 0 0 0
0 0 0 0 0 0 0 0 0 0 0 0 0 0 0 0 0 0 0 0 0 0 0 0 0 0 0 0 0 0 0 0 0 0 0 0 0 0 0 0 0 0 0 0 0 0 0 0 0
0 0 0 0 0 0 0 0 0 0 0 0 0 0 0 0 0 0 0 0 0 0 0 0 0 0 0 0 0 0 0 0 0 0 0 0 0 0 0 0 0 0 0 0 0 0 0 0 0
Wind_Speed_500mb
10 8 11 4 8 9 2 4 9 11 8 11 17 18 17 11 5 6 27 43 44 49 40 34 28 24 22 19 17 18 20 23 26 27 25 26 30 32 37 30 23 17 18 28 34 36 40 43 43
5 7 2 2 8 8 7 7 10 6 16 19 17 12 8 5 8 36 46 35 40 41 36 30 28 27 22 19 17 16 18 23 27 26 25 24 27 29 36 27 18 9 16 29 33 37 40 42 41
4 4 5 7 6 8 6 9 15 16 18 11 7 10 7 7 18 45 27 40 37 37 35 31 30 27 22 19 18 16 18 21 22 22 23 24 24 29 32 25 15 15 23 27 32 36 40 41 37
6 1 6 7 5 6 12 15 31 13 9 9 14 13 15 10 29 32 39 38 33 36 37 34 32 29 24 19 15 14 14 16 19 20 21 22 20 23 26 20 13 17 22 25 31 36 38 37 35
5 4 4 4 3 5 12 30 23 10 17 12 10 10 15 22 23 29 47 37 36 32 37 34 31 28 24 20 16 13 12 13 15 17 18 19 19 19 17 14 15 16 21 25 30 34 36 33 28
3 2 6 4 4 9 8 19 26 21 22 17 8 19 12 25 28 31 47 40 30 25 27 29 31 30 27 24 20 16 14 13 14 15 16 16 17 18 16 16 17 18 21 26 31 34 37 35 28
5 7 6 4 5 4 9 22 13 18 23 14 10 8 18 26 30 38 48 40 32 30 30 30 35 32 28 25 21 17 13 12 12 12 13 14 15 16 17 19 19 20 23 26 29 33 33 32 29
2 9 8 5 6 6 14 11 7 9 7 26 15 9 12 28 40 46 51 42 38 32 32 27 37 37 33 29 24 20 16 13 12 11 11 13 15 16 17 18 19 19 21 24 26 28 29 28 24
3 8 3 8 6 7 18 8 7 10 20 9 12 15 14 28 38 49 53 47 42 38 37 38 39 40 36 32 29 26 22 18 15 13 10 10 12 16 18 19 20 20 21 23 25 27 26 24 22
7 8 9 6 4 5 12 13 17 8 15 10 14 13 20 28 35 47 59 60 52 51 45 40 38 42 40 38 36 33 29 25 21 18 16 15 12 12 16 19 19 18 19 21 23 24 22 17 16
11 10 6 5 9 8 6 5 9 12 5 21 30 32 36 37 35 43 47 57 61 54 52 45 43 38 37 40 37 39 37 34 31 27 25 20 13 10 12 11 12 14 14 15 18 16 15 12 9
3 9 4 6 4 5 3 4 2 21 15 4 13 26 40 44 42 44 47 50 58 57 59 48 47 48 47 45 44 39 43 41 38 35 34 30 21 17 12 9 11 14 12 7 6 5 7 8 7
5 5 1 7 1 3 5 10 10 17 23 25 30 17 39 43 39 41 42 44 53 61 60 54 53 54 52 53 50 49 46 46 41 41 40 35 30 26 20 14 18 12 11 9 6 6 8 10 11
3 2 4 8 5 5 5 8 3 14 12 33 28 29 29 41 39 40 47 49 53 57 59 53 59 61 59 57 56 57 52 50 46 45 44 42 36 34 28 20 22 21 19 15 15 15 16 15 14
5 6 10 12 12 5 7 12 16 37 22 18 25 35 34 38 41 47 48 52 53 56 56 61 64 62 63 62 61 60 58 54 52 50 50 49 48 44 38 33 30 29 27 26 24 21 25 25 20
4 4 2 7 22 8 8 15 14 18 27 37 32 32 35 43 44 50 53 53 54 57 61 63 65 68 69 66 65 65 61 56 56 54 52 52 53 53 50 48 40 39 40 34 32 33 29 32 26
5 6 9 7 13 7 8 10 10 1 4 14 17 29 36 39 45 50 51 56 58 60 67 72 73 72 73 69 71 70 66 63 61 58 56 55 57 59 61 54 52 53 53 45 40 42 36 36 38
11 6 7 10 12 9 9 17 22 46 47 39 43 44 47 43 47 48 52 55 57 59 66 72 79 78 78 74 73 79 75 71 67 66 64 64 61 61 63 66 61 63 62 56 51 50 47 45 45
8 6 3 3 9 10 15 17 21 44 45 47 51 57 56 58 53 51 53 53 57 61 67 74 82 86 84 83 83 84 91 87 84 82 78 74 67 66 64 65 68 70 71 67 60 59 55 56 58
9 8 8 7 5 5 11 22 21 26 41 63 61 66 67 65 58 54 54 57 62 65 65 72 79 85 87 88 85 83 84 88 90 87 81 79 73 69 68 75 75 71 75 80 73 68 60 67 69
8 11 8 10 3 5 10 15 16 16 26 42 48 58 58 60 56 54 54 53 57 70 71 68 69 80 86 86 85 85 87 87 88 93 93 89 84 78 75 77 86 78 85 77 81 78 79 64 76
8 2 6 7 3 7 4 12 13 13 25 11 39 48 55 52 49 43 34 42 56 56 69 70 67 69 77 80 84 85 88 92 95 95 94 92 89 85 79 84 89 86 85 85 83 83 87 75 78
12 5 5 4 3 2 5 5 16 10 13 24 34 43 37 26 24 29 28 31 33 37 48 65 67 65 71 80 83 83 85 89 89 90 92 91 87 83 83 86 88 94 95 82 84 79 107 94 82
14 11 13 10 6 9 16 15 7 9 13 9 13 17 12 2 6 10 16 20 30 34 34 48 60 62 65 73 79 82 81 81 83 85 85 82 81 78 79 84 90 93 96 93 80 89 94 104 96
10 14 3 5 2 15 5 5 13 15 12 9 6 9 7 11 19 17 16 19 27 28 29 36 47 53 57 63 70 74 75 76 79 80 81 82 79 76 72 72 83 95 94 96 88 84 95 87 101
18 17 12 15 9 10 8 14 10 19 19 8 17 24 16 14 15 19 20 25 23 25 28 32 38 41 44 51 57 61 64 69 73 74 77 80 78 73 66 64 70 86 93 92 94 83 98 89 88
12 14 13 10 3 6 9 14 15 14 17 27 43 45 21 7 14 15 20 20 21 25 28 27 25 24 29 34 40 47 52 58 62 65 68 73 72 68 64 61 60 65 83 89 86 92 90 92 85
14 13 6 4 6 8 9 11 14 11 19 10 11 13 16 12 12 12 16 20 22 23 23 20 15 12 10 14 22 29 36 44 47 53 59 62 63 64 62 61 61 63 72 86 87 88 86 87 96
5 7 6 9 11 11 5 13 13 14 11 10 8 19 23 24 18 8 11 13 12 11 12 16 18 12 5 6 13 23 25 32 38 43 48 54 56 59 59 57 58 59 63 66 79 84 84 91 84
9 18 14 9 8 9 6 24 7 18 14 21 16 18 18 19 21 19 18 9 5 8 13 16 3 7 13 16 25 29 31 35 37 40 42 47 54 55 54 55 55 55 56 60 66 70 79 83 83
Wind_Direction_500mb
190 209 256 15 51 73 302 38 133 96 50 68 70 68 115 78 86 164 152 155 154 159 159 155 154 140 131 124 107 96 89 88 86 89 96 99 111 113 118 104 100 84 79 86 88 90 96 100 97
194 229 297 70 90 76 292 146 90 94 121 96 88 46 99 103 86 133 140 169 172 165 165 162 156 152 145 130 114 97 86 84 84 86 90 94 105 105 122 108 105 84 66 89 90 96 105 107 105
148 270 321 102 108 130 165 118 137 109 104 109 94 89 65 100 127 143 160 164 182 175 172 169 164 161 152 140 127 118 103 95 88 85 88 96 107 113 117 121 129 89 89 93 95 101 107 108 109
177 349 283 81 141 333 110 148 125 109 87 107 107 83 88 122 145 149 159 173 178 173 177 172 170 167 161 149 134 118 109 105 98 93 92 93 105 118 130 138 113 86 94 99 100 107 113 114 106
118 291 28 300 358 132 104 146 129 132 150 151 120 159 112 131 160 153 166 178 176 178 174 174 175 175 169 162 155 145 133 118 102 96 93 95 104 115 132 136 115 111 106 106 109 115 119 119 115
75 315 39 339 180 155 115 130 142 138 138 146 139 125 147 168 178 161 162 169 185 180 173 179 183 183 181 177 173 165 155 145 126 107 97 97 107 115 121 116 113 116 117 115 116 122 129 131 125
111 83 220 266 240 111 148 142 140 145 147 163 142 86 148 177 187 166 160 172 178 178 187 193 191 188 187 187 187 182 174 161 141 127 110 104 106 112 117 120 121 119 119 120 125 132 136 137 140
120 99 322 281 293 148 155 119 156 119 154 150 171 148 177 178 162 161 164 176 185 189 196 202 198 195 193 192 196 198 197 183 163 145 125 117 115 116 115 115 117 121 122 125 132 135 140 143 147
111 67 276 268 297 132 153 114 137 109 133 144 161 155 167 168 165 168 171 182 187 197 200 204 210 203 201 201 202 203 206 198 189 177 158 140 127 122 117 113 114 119 125 129 134 140 145 149 150
113 112 226 340 8 151 149 130 163 158 141 148 170 167 169 173 181 183 183 184 191 198 199 204 210 212 207 206 208 207 208 208 206 202 187 165 146 142 131 120 115 116 123 132 141 148 155 165 161
172 169 199 34 51 54 96 101 163 161 204 205 210 188 184 189 195 197 198 194 200 202 205 206 207 215 214 213 217 214 212 211 208 203 198 184 163 175 157 134 125 124 126 137 148 156 164 180 172
148 230 209 127 28 18 49 280 226 199 205 121 229 232 206 205 208 205 205 204 202 210 218 219 210 209 207 210 214 222 222 214 210 207 208 202 188 191 179 189 183 148 147 116 135 161 181 209 222
138 323 93 146 186 218 263 262 252 252 230 244 254 239 215 218 219 217 217 212 208 214 220 218 212 212 215 215 216 221 226 223 217 215 218 216 203 200 192 213 214 190 202 202 240 249 216 217 231
124 14 266 199 186 207 210 260 257 251 216 229 235 233 231 222 228 224 217 217 214 218 223 223 215 213 214 217 219 220 223 227 222 220 223 221 213 213 206 226 236 218 236 242 254 252 233 226 225
80 352 317 223 193 197 211 295 224 258 219 229 220 232 235 237 232 236 239 229 227 225 224 223 223 222 218 221 225 220 226 227 228 226 225 225 222 221 216 228 238 239 236 239 239 251 250 227 218
126 93 317 303 159 200 156 267 273 279 223 230 234 229 235 232 240 252 244 242 236 232 229 229 227 229 227 224 224 227 227 227 227 232 234 232 229 230 230 223 231 236 240 245 235 238 233 220 215
317 209 206 304 167 131 170 260 263 78 334 244 241 232 240 247 248 250 250 248 244 236 231 228 230 233 232 232 230 229 228 229 229 231 237 236 233 237 235 234 232 230 230 237 242 237 232 223 217
206 210 261 217 228 157 209 255 275 281 289 273 273 266 260 247 243 246 249 249 247 243 238 233 232 234 235 235 231 230 229 234 235 235 237 239 235 233 238 233 233 233 231 235 234 234 226 224 223
176 157 187 287 209 159 223 258 263 275 280 275 266 261 256 254 259 257 250 251 250 243 238 234 232 233 235 234 233 225 226 226 229 234 236 239 233 232 231 235 234 236 237 239 241 228 225 217 219
243 227 258 303 200 164 274 267 263 256 257 259 262 268 264 263 261 257 254 251 249 249 244 238 236 235 236 239 239 236 232 229 235 237 238 239 234 233 236 237 235 235 238 232 237 236 225 219 224
189 176 214 212 347 285 313 287 277 279 253 273 265 266 269 266 268 264 254 249 250 247 246 242 242 241 239 239 238 237 237 236 233 236 239 240 241 239 237 240 238 241 242 236 240 236 234 240 225
218 222 225 256 21 238 123 288 287 273 287 258 272 266 264 269 271 275 269 252 248 251 248 246 246 245 242 240 240 240 239 237 238 237 240 241 240 241 242 238 239 243 240 243 240 245 236 241 240
210 138 128 130 163 15 278 285 271 257 274 265 263 268 279 283 271 273 264 249 248 254 248 247 244 246 245 243 245 245 243 243 244 245 246 248 249 249 245 243 242 243 241 243 248 240 238 240 249
156 79 38 36 70 282 193 197 260 226 210 260 277 281 310 229 195 247 255 251 252 254 239 240 240 242 246 247 248 248 248 248 246 248 250 250 249 248 248 239 244 245 245 246 244 250 243 251 248
96 89 335 332 352 238 302 211 247 265 245 185 271 302 257 253 282 268 253 282 279 264 250 240 239 244 244 247 248 250 253 253 253 252 255 256 257 256 256 254 244 241 245 248 246 243 258 239 256
189 162 167 198 201 258 329 242 251 231 248 275 289 302 318 272 263 269 278 282 261 253 249 244 243 244 244 245 247 249 252 253 255 256 259 261 260 260 259 257 254 240 243 243 245 255 249 261 246
206 208 176 97 20 39 232 290 300 280 305 291 292 302 5 346 298 281 281 281 270 262 247 248 246 241 241 244 246 249 253 255 257 258 260 262 265 264 261 257 254 248 243 244 248 253 246 249 257
157 161 78 360 148 255 267 269 229 303 276 344 8 36 23 8 350 301 306 295 273 266 247 231 207 189 218 244 253 254 255 256 258 260 261 264 266 263 261 259 257 253 246 242 246 246 249 254 256
127 179 171 141 156 184 254 256 222 214 147 128 68 56 35 27 8 353 329 286 273 244 213 179 152 147 89 355 294 273 264 260 258 259 261 262 265 267 266 263 258 254 251 243 241 246 248 248 255
192 202 167 154 225 232 180 257 198 140 160 130 94 53 16 19 13 359 351 331 299 233 184 157 129 296 266 271 288 277 267 265 266 268 265 262 263 266 269 264 259 255 250 245 246 250 249 250 251
Wind_Speed_850mb
10 8 11 4 8 9 2 4 9 11 8 11 17 18 17 11 5 6 27 43 44 49 40 34 28 24 22 19 17 18 20 23 26 27 25 26 30 32 37 30 23 17 18 28 34 36 40 43 43
5 7 2 2 8 8 7 7 10 6 16 19 17 12 8 5 8 36 46 35 40 41 36 30 28 27 22 19 17 16 18 23 27 26 25 24 27 29 36 27 18 9 16 29 33 37 40 42 41
4 4 5 7 6 8 6 9 15 16 18 11 7 10 7 7 18 45 27 40 37 37 35 31 30 27 22 19 18 16 18 21 22 22 23 24 24 29 32 25 15 15 23 27 32 36 40 41 37
6 1 6 7 5 6 12 15 31 13 9 9 14 13 15 10 29 32 39 38 33 36 37 34 32 29 24 19 15 14 14 16 19 20 21 22 20 23 26 20 13 17 22 25 31 36 38 37 35
5 4 4 4 3 5 12 30 23 10 17 12 10 10 15 22 23 29 47 37 36 32 37 34 31 28 24 20 16 13 12 13 15 17 18 19 19 19 17 14 15 16 21 25 30 34 36 33 28
3 2 6 4 4 9 8 19 26 21 22 17 8 19 12 25 28 31 47 40 30 25 27 29 31 30 27 24 20 16 14 13 14 15 16 16 17 18 16 16 17 18 21 26 31 34 37 35 28
5 7 6 4 5 4 9 22 13 18 23 14 10 8 18 26 30 38 48 40 32 30 30 30 35 32 28 25 21 17 13 12 12 12 13 14 15 16 17 19 19 20 23 26 29 33 33 32 29
2 9 8 5 6 6 14 11 7 9 7 26 15 9 12 28 40 46 51 42 38 32 32 27 37 37 33 29 24 20 16 13 12 11 11 13 15 16 17 18 19 19 21 24 26 28 29 28 24
3 8 3 8 6 7 18 8 7 10 20 9 12 15 14 28 38 49 53 47 42 38 37 38 39 40 36 32 29 26 22 18 15 13 10 10 12 16 18 19 20 20 21 23 25 27 26 24 22
7 8 9 6 4 5 12 13 17 8 15 10 14 13 20 28 35 47 59 60 52 51 45 40 38 42 40 38 36 33 29 25 21 18 16 15 12 12 16 19 19 18 19 21 23 24 22 17 16
11 10 6 5 9 8 6 5 9 12 5 21 30 32 36 37 35 43 47 57 61 54 52 45 43 38 37 40 37 39 37 34 31 27 25 20 13 10 12 11 12 14 14 15 18 16 15 12 9
3 9 4 6 4 5 3 4 2 21 15 4 13 26 40 44 42 44 47 50 58 57 59 48 47 48 47 45 44 39 43 41 38 35 34 30 21 17 12 9 11 14 12 7 6 5 7 8 7
5 5 1 7 1 3 5 10 10 17 23 25 30 17 39 43 39 41 42 44 53 61 60 54 53 54 52 53 50 49 46 46 41 41 40 35 30 26 20 14 18 12 11 9 6 6 8 10 11
3 2 4 8 5 5 5 8 3 14 12 33 28 29 29 41 39 40 47 49 53 57 59 53 59 61 59 57 56 57 52 50 46 45 44 42 36 34 28 20 22 21 19 15 15 15 16 15 14
5 6 10 12 12 5 7 12 16 37 22 18 25 35 34 38 41 47 48 52 53 56 56 61 64 62 63 62 61 60 58 54 52 50 50 49 48 44 38 33 30 29 27 26 24 21 25 25 20
4 4 2 7 22 8 8 15 14 18 27 37 32 32 35 43 44 50 53 53 54 57 61 63 65 68 69 66 65 65 61 56 56 54 52 52 53 53 50 48 40 39 40 34 32 33 29 32 26
5 6 9 7 13 7 8 10 10 1 4 14 17 29 36 39 45 50 51 56 58 60 67 72 73 72 73 69 71 70 66 63 61 58 56 55 57 59 61 54 52 53 53 45 40 42 36 36 38
11 6 7 10 12 9 9 17 22 46 47 39 43 44 47 43 47 48 52 55 57 59 66 72 79 78 78 74 73 79 75 71 67 66 64 64 61 61 63 66 61 63 62 56 51 50 47 45 45
8 6 3 3 9 10 15 17 21 44 45 47 51 57 56 58 53 51 53 53 57 61 67 74 82 86 84 83 83 84 91 87 84 82 78 74 67 66 64 65 68 70 71 67 60 59 55 56 58
9 8 8 7 5 5 11 22 21 26 41 63 61 66 67 65 58 54 54 57 62 65 65 72 79 85 87 88 85 83 84 88 90 87 81 79 73 69 68 75 75 71 75 80 73 68 60 67 69
8 11 8 10 3 5 10 15 16 16 26 42 48 58 58 60 56 54 54 53 57 70 71 68 69 80 86 86 85 85 87 87 88 93 93 89 84 78 75 77 86 78 85 77 81 78 79 64 76
8 2 6 7 3 7 4 12 13 13 25 11 39 48 55 52 49 43 34 42 56 56 69 70 67 69 77 80 84 85 88 92 95 95 94 92 89 85 79 84 89 86 85 85 83 83 87 75 78
12 5 5 4 3 2 5 5 16 10 13 24 34 43 37 26 24 29 28 31 33 37 48 65 67 65 71 80 83 83 85 89 89 90 92 91 87 83 83 86 88 94 95 82 84 79 107 94 82
14 11 13 10 6 9 16 15 7 9 13 9 13 17 12 2 6 10 16 20 30 34 34 48 60 62 65 73 79 82 81 81 83 85 85 82 81 78 79 84 90 93 96 93 80 89 94 104 96
10 14 3 5 2 15 5 5 13 15 12 9 6 9 7 11 19 17 16 19 27 28 29 36 47 53 57 63 70 74 75 76 79 80 81 82 79 76 72 72 83 95 94 96 88 84 95 87 101
18 17 12 15 9 10 8 14 10 19 19 8 17 24 16 14 15 19 20 25 23 25 28 32 38 41 44 51 57 61 64 69 73 74 77 80 78 73 66 64 70 86 93 92 94 83 98 89 88
12 14 13 10 3 6 9 14 15 14 17 27 43 45 21 7 14 15 20 20 21 25 28 27 25 24 29 34 40 47 52 58 62 65 68 73 72 68 64 61 60 65 83 89 86 92 90 92 85
14 13 6 4 6 8 9 11 14 11 19 10 11 13 16 12 12 12 16 20 22 23 23 20 15 12 10 14 22 29 36 44 47 53 59 62 63 64 62 61 61 63 72 86 87 88 86 87 96
5 7 6 9 11 11 5 13 13 14 11 10 8 19 23 24 18 8 11 13 12 11 12 16 18 12 5 6 13 23 25 32 38 43 48 54 56 59 59 57 58 59 63 66 79 84 84 91 84
9 18 14 9 8 9 6 24 7 18 14 21 16 18 18 19 21 19 18 9 5 8 13 16 3 7 13 16 25 29 31 35 37 40 42 47 54 55 54 55 55 55 56 60 66 70 79 83 83
Wind_Direction_850mb
190 209 256 15 51 73 302 38 133 96 50 68 70 68 115 78 86 164 152 155 154 159 159 155 154 140 131 124 107 96 89 88 86 89 96 99 111 113 118 104 100 84 79 86 88 90 96 100 97
194 229 297 70 90 76 292 146 90 94 121 96 88 46 99 103 86 133 140 169 172 165 165 162 156 152 145 130 114 97 86 84 84 86 90 94 105 105 122 108 105 84 66 89 90 96 105 107 105
148 270 321 102 108 130 165 118 137 109 104 109 94 89 65 100 127 143 160 164 182 175 172 169 164 161 152 140 127 118 103 95 88 85 88 96 107 113 117 121 129 89 89 93 95 101 107 108 109
177 349 283 81 141 333 110 148 125 109 87 107 107 83 88 122 145 149 159 173 178 173 177 172 170 167 161 149 134 118 109 105 98 93 92 93 105 118 130 138 113 86 94 99 100 107 113 114 106
118 291 28 300 358 132 104 146 129 132 150 151 120 159 112 131 160 153 166 178 176 178 174 174 175 175 169 162 155 145 133 118 102 96 93 95 104 115 132 136 115 111 106 106 109 115 119 119 115
75 315 39 339 180 155 115 130 142 138 138 146 139 125 147 168 178 161 162 169 185 180 173 179 183 183 181 177 173 165 155 145 126 107 97 97 107 115 121 116 113 116 117 115 116 122 129 131 125
111 83 220 266 240 111 148 142 140 145 147 163 142 86 148 177 187 166 160 172 178 178 187 193 191 188 187 187 187 182 174 161 141 127 110 104 106 112 117 120 121 119 119 120 125 132 136 137 140
120 99 322 281 293 148 155 119 156 119 154 150 171 148 177 178 162 161 164 176 185 189 196 202 198 195 193 192 196 198 197 183 163 145 125 117 115 116 115 115 117 121 122 125 132 135 140 143 147
111 67 276 268 297 132 153 114 137 109 133 144 161 155 167 168 165 168 171 182 187 197 200 204 210 203 201 201 202 203 206 198 189 177 158 140 127 122 117 113 114 119 125 129 134 140 145 149 150
113 112 226 340 8 151 149 130 163 158 141 148 170 167 169 173 181 183 183 184 191 198 199 204 210 212 207 206 208 207 208 208 206 202 187 165 146 142 131 120 115 116 123 132 141 148 155 165 161
172 169 199 34 51 54 96 101 163 161 204 205 210 188 184 189 195 197 198 194 200 202 205 206 207 215 214 213 217 214 212 211 208 203 198 184 163 175 157 134 125 124 126 137 148 156 164 180 172
148 230 209 127 28 18 49 280 226 199 205 121 229 232 206 205 208 205 205 204 202 210 218 219 210 209 207 210 214 222 222 214 210 207 208 202 188 191 179 189 183 148 147 116 135 161 181 209 222
138 323 93 146 186 218 263 262 252 252 230 244 254 239 215 218 219 217 217 212 208 214 220 218 212 212 215 215 216 221 226 223 217 215 218 216 203 200 192 213 214 190 202 202 240 249 216 217 231
124 14 266 199 186 207 210 260 257 251 216 229 235 233 231 222 228 224 217 217 214 218 223 223 215 213 214 217 219 220 223 227 222 220 223 221 213 213 206 226 236 218 236 242 254 252 233 226 225
80 352 317 223 193 197 211 295 224 258 219 229 220 232 235 237 232 236 239 229 227 225 224 223 223 222 218 221 225 220 226 227 228 226 225 225 222 221 216 228 238 239 236 239 239 251 250 227 218
126 93 317 303 159 200 156 267 273 279 223 230 234 229 235 232 240 252 244 242 236 232 229 229 227 229 227 224 224 227 227 227 227 232 234 232 229 230 230 223 231 236 240 245 235 238 233 220 215
317 209 206 304 167 131 170 260 263 78 334 244 241 232 240 247 248 250 250 248 244 236 231 228 230 233 232 232 230 229 228 229 229 231 237 236 233 237 235 234 232 230 230 237 242 237 232 223 217
206 210 261 217 228 157 209 255 275 281 289 273 273 266 260 247 243 246 249 249 247 243 238 233 232 234 235 235 231 230 229 234 235 235 237 239 235 233 238 233 233 233 231 235 234 234 226 224 223
176 157 187 287 209 159 223 258 263 275 280 275 266 261 256 254 259 257 250 251 250 243 238 234 232 233 235 234 233 225 226 226 229 234 236 239 233 232 231 235 234 236 237 239 241 228 225 217 219
243 227 258 303 200 164 274 267 263 256 257 259 262 268 264 263 261 257 254 251 249 249 244 238 236 235 236 239 239 236 232 229 235 237 238 239 234 233 236 237 235 235 238 232 237 236 225 219 224
189 176 214 212 347 285 313 287 277 279 253 273 265 266 269 266 268 264 254 249 250 247 246 242 242 241 239 239 238 237 237 236 233 236 239 240 241 239 237 240 238 241 242 236 240 236 234 240 225
218 222 225 256 21 238 123 288 287 273 287 258 272 266 264 269 271 275 269 252 248 251 248 246 246 245 242 240 240 240 239 237 238 237 240 241 240 241 242 238 239 243 240 243 240 245 236 241 240
210 138 128 130 163 15 278 285 271 257 274 265 263 268 279 283 271 273 264 249 248 254 248 247 244 246 245 243 245 245 243 243 244 245 246 248 249 249 245 243 242 243 241 243 248 240 238 240 249
156 79 38 36 70 282 193 197 260 226 210 260 277 281 310 229 195 247 255 251 252 254 239 240 240 242 246 247 248 248 248 248 246 248 250 250 249 248 248 239 244 245 245 246 244 250 243 251 248
96 89 335 332 352 238 302 211 247 265 245 185 271 302 257 253 282 268 253 282 279 264 250 240 239 244 244 247 248 250 253 253 253 252 255 256 257 256 256 254 244 241 245 248 246 243 258 239 256
189 162 167 198 201 258 329 242 251 231 248 275 289 302 318 272 263 269 278 282 261 253 249 244 243 244 244 245 247 249 252 253 255 256 259 261 260 260 259 257 254 240 243 243 245 255 249 261 246
206 208 176 97 20 39 232 290 300 280 305 291 292 302 5 346 298 281 281 281 270 262 247 248 246 241 241 244 246 249 253 255 257 258 260 262 265 264 261 257 254 248 243 244 248 253 246 249 257
157 161 78 360 148 255 267 269 229 303 276 344 8 36 23 8 350 301 306 295 273 266 247 231 207 189 218 244 253 254 255 256 258 260 261 264 266 263 261 259 257 253 246 242 246 246 249 254 256
127 179 171 141 156 184 254 256 222 214 147 128 68 56 35 27 8 353 329 286 273 244 213 179 152 147 89 355 294 273 264 260 258 259 261 262 265 267 266 263 258 254 251 243 241 246 248 248 255
192 202 167 154 225 232 180 257 198 140 160 130 94 53 16 19 13 359 351 331 299 233 184 157 129 296 266 271 288 277 267 265 266 268 265 262 263 266 269 264 259 255 250 245 246 250 249 250 251